Regional Weather Roundup
Issued by NWS

Home | Current Version | Previous Version | Text Only | Print | Product List | Glossary Off
Versions: 1 2 3 4 5 6 7 8 9 10 11 12 13 14 15 16 17 18 19 20 21 22 23 24 25 26 27 28 29 30 31 32 33 34 35 36 37 38 39 40 41 42 43 44 45 46 47 48 49 50

713
ASUS44 KLIX 221901
RWRLA
LOUISIANA WEATHER ROUNDUP
NATIONAL WEATHER SERVICE NEW ORLEANS LA
200 PM CDT MON SEP 22 2014

NOTE: "FAIR" INDICATES FEW OR NO CLOUDS BELOW 12,000 FEET WITH NO
      SIGNIFICANT WEATHER AND/OR OBSTRUCTIONS TO VISIBILITY.
      SKY/WX - SKY CONDITION AND SIGNIFICANT WEATHER.
      TMP - AIR TEMPERATURE.    DP   - DEWPOINT TEMPERATURE.
      RH  - RELATIVE HUMIDITY.  PRES - PRESSURE.
      HX  - HEAT INDEX.         WCI  - WIND CHILL INDEX.

*  THESE STATIONS ARE NOT NWS OR FAA STATIONS AND ARE NOT UNDER
   NWS QUALITY CONTROL.

LAZ040-048-061>063-065-066-069-222000-
SOUTHEAST LOUISIANA

CITY           SKY/WX    TMP DP  RH WIND       PRES   REMARKS
N.O. AUDUBON   NOT AVBL
N.O. INTL ARPT MOSUNNY   89  70  53 N12       30.00F
N.O. LAKEFRONT SUNNY     86  72  62 NW8       30.00F
N.O. DOWNTOWN* FAIR      90  66  45 N5G17     30.00F
SLIDELL        MOSUNNY   88  72  58 N8        29.99F
BATON ROUGE    MOSUNNY   87  69  54 N7        30.03F
BOOTHVILLE     SUNNY     86  73  65 N7        29.99F
BELLE CHASSE   MOSUNNY   91  64  40 VRB7      29.98F
BOGALUSA*        N/A     86  69  55 N10       30.04F
GALLIANO*      NOT AVBL
NEW ROADS*     FAIR      86  69  56 N9        30.04F
GONZALES*      MOCLDY    85  74  68 N5        30.00F
HAMMOND*       NOT AVBL
HOUMA*         NOT AVBL
PORT FOURCHON* CLEAR     88  64  45 NE15      30.01F

$$

LAZ041-044-053-054-222000-
SOUTHWEST LOUISIANA

CITY           SKY/WX    TMP DP  RH WIND       PRES   REMARKS
LAKE CHARLES   MOSUNNY   88  72  58 N12       30.04F
LAFAYETTE      MOSUNNY   89  72  56 NE17      30.03F HX  96
PATTERSON      SUNNY     90  73  58 NE9       30.03F HX  98
SALT POINT       N/A     92  71  50 VRB5      29.99F HX  98
NEW IBERIA     PTSUNNY   89  73  59 N15       30.02F HX  97
CHENAULT AIRPK PTSUNNY   84  73  70 N13       30.05F

$$

LAZ027-028-222000-
CENTRAL LOUISIANA

CITY           SKY/WX    TMP DP  RH WIND       PRES   REMARKS
FORT POLK      NOT AVBL
ALEXANDRIA INT SUNNY     85  60  42 NE13G20   30.07F
ALEXANDRIA     SUNNY     85  59  41 NE8       30.09F

$$

LAZ001-002-222000-
NORTHWEST LOUISIANA

CITY           SKY/WX    TMP DP  RH WIND       PRES   REMARKS
SHREVEPORT     MOSUNNY   85  52  32 NE8       30.13F
BARKSDALE AFB  SUNNY     85  50  29 NE9       30.13F
DTN SHREVEPORT SUNNY     83  52  34 VRB6      30.13F

$$

LAZ014-016-222000-
NORTHEAST LOUISIANA

CITY           SKY/WX    TMP DP  RH WIND       PRES   REMARKS
MONROE         SUNNY     84  53  34 N13       30.12F
TALLULAH       SUNNY     85  51  31 NE17      30.10F

$$




USA.gov is the U.S. government's official web portal to all federal, state and local government web resources and services.